Find Starlink 31792

NORAD ID: 60132 Int'l Des: 2024-118 Owner: SPXS Country: US Constellation: starlink operational
LEOCIRCULAR

实时位置

正在加载3D地球...

关于 Starlink 31792

正在加载描述...

即将过境

Passes for default location (London). Set your location on the main map for personalized predictions.

高度历史

Loading altitude history...

两行轨道根数

1 60132U 24118V 26104.57578832 -.00000473 00000-0 -38590-5 0 9992
2 60132 53.1611 217.6449 0000907 90.3772 269.7333 15.30191627101222
Epoch: Apr 14, 2026 • Age: 15 hours

当前状态

高度 485.8 km
速度 7.62 km/s
星下点 -32.53°S, 146.33°E
发射日期 Jun 24, 2024
运行时间 1.8 years
类型 internet

技术详情

分类 Payload
质量 730.00 kg
干质量 700.00 kg
总质量 730.00 kg
长度 0.30 m
直径 4.10 m
跨度 29.00 m
形状 Box + pan
制造商 SPXS
平台类型 Starlink V2M
阶段状态 In Orbit
所有者/国家 SPXS/US

Most Searched